• In Czech Republic
  • List of Countries
  • For 7 days
  • Water Temperature
  • Satellite Maps
  • Weather Map
  • Weather Widgets
  • user-avatar
    Login

    Hourly Weather Rangpur

    Today, 22 October, Sunday

    Time Temperature Precipitation Wind Pressure Humidity
    00:00 +22°C° 0 mm 5 mps 751 mmHg 89%
    01:00 +22°C° 0 mm 4 mps 750 mmHg 89%
    02:00 +22°C° 0 mm 4 mps 750 mmHg 89%
    03:00 +22°C° 0 mm 4 mps 750 mmHg 90%
    04:00 +22°C° 0 mm 3 mps 751 mmHg 90%
    05:00 +22°C° 0 mm 3 mps 751 mmHg 90%
    06:00 +23°C° 0 mm 2 mps 751 mmHg 91%
    07:00 +24°C° 0 mm 2 mps 751 mmHg 87%
    08:00 +26°C° 0 mm 2 mps 752 mmHg 83%
    09:00 +27°C° 0 mm 2 mps 752 mmHg 79%
    10:00 +28°C° 0 mm 2 mps 752 mmHg 76%
    11:00 +29°C° 0 mm 2 mps 752 mmHg 72%
    12:00 +30°C° 0 mm 2 mps 752 mmHg 68%
    13:00 +30°C° 0 mm 2 mps 752 mmHg 68%
    14:00 +30°C° 0 mm 2 mps 751 mmHg 68%
    15:00 +31°C° 0 mm 2 mps 751 mmHg 67%
    16:00 +29°C° 0 mm 1 mps 751 mmHg 71%
    17:00 +28°C° 0 mm 1 mps 751 mmHg 74%
    18:00 +27°C° 0 mm 1 mps 751 mmHg 79%
    19:00 +27°C° 0.4 mm 1 mps 751 mmHg 81%
    20:00 +26°C° 0.4 mm 2 mps 752 mmHg 83%
    21:00 +26°C° 0.4 mm 2 mps 752 mmHg 85%
    22:00 +26°C° 0.5 mm 2 mps 752 mmHg 86%
    23:00 +26°C° 0.5 mm 2 mps 753 mmHg 87%

    Tomorrow, 23 October, Monday

    Time Temperature Precipitation Wind Pressure Humidity
    00:00 +25°C° 0.5 mm 2 mps 753 mmHg 88%
    01:00 +25°C° 0.6 mm 2 mps 753 mmHg 89%
    02:00 +25°C° 0.6 mm 2 mps 753 mmHg 90%
    03:00 +25°C° 0.6 mm 1 mps 752 mmHg 91%
    04:00 +24°C° 0.6 mm 1 mps 753 mmHg 92%
    05:00 +24°C° 0.6 mm 1 mps 753 mmHg 92%
    06:00 +24°C° 0.6 mm 1 mps 753 mmHg 93%
    07:00 +25°C° 0.3 mm 2 mps 754 mmHg 89%
    08:00 +27°C° 0.3 mm 2 mps 754 mmHg 85%
    09:00 +28°C° 0.3 mm 2 mps 754 mmHg 82%
    10:00 +29°C° 0.4 mm 2 mps 754 mmHg 77%
    11:00 +30°C° 0.4 mm 2 mps 754 mmHg 72%
    12:00 +31°C° 0.4 mm 2 mps 754 mmHg 67%
    13:00 +31°C° 0.2 mm 2 mps 753 mmHg 65%
    14:00 +32°C° 0.2 mm 2 mps 753 mmHg 62%
    15:00 +32°C° 0.2 mm 1 mps 752 mmHg 60%
    16:00 +31°C° 0.1 mm 1 mps 752 mmHg 65%
    17:00 +29°C° 0.1 mm 1 mps 752 mmHg 69%
    18:00 +28°C° 0.1 mm 1 mps 752 mmHg 74%
    19:00 +27°C° 0 mm 1 mps 753 mmHg 76%
    20:00 +27°C° 0 mm 1 mps 754 mmHg 78%
    21:00 +26°C° 0 mm 2 mps 754 mmHg 80%
    22:00 +26°C° 0 mm 2 mps 754 mmHg 82%
    23:00 +26°C° 0 mm 2 mps 755 mmHg 84%

    Day after tomorrow, 24 October, Tuesday

    Time Temperature Precipitation Wind Pressure Humidity
    00:00 +25°C° 0 mm 2 mps 755 mmHg 86%
    01:00 +25°C° 0.1 mm 2 mps 755 mmHg 87%
    02:00 +25°C° 0.1 mm 2 mps 755 mmHg 88%
    03:00 +24°C° 0.1 mm 2 mps 755 mmHg 90%
    04:00 +24°C° 0.2 mm 2 mps 755 mmHg 90%
    05:00 +24°C° 0.2 mm 2 mps 755 mmHg 91%
    06:00 +24°C° 0.2 mm 1 mps 755 mmHg 91%
    07:00 +25°C° 0.3 mm 2 mps 756 mmHg 86%
    08:00 +26°C° 0.3 mm 2 mps 756 mmHg 81%
    09:00 +28°C° 0.3 mm 2 mps 757 mmHg 76%
    10:00 +29°C° 0.2 mm 2 mps 757 mmHg 70%
    11:00 +30°C° 0.2 mm 2 mps 756 mmHg 64%
    12:00 +31°C° 0.2 mm 2 mps 756 mmHg 58%
    13:00 +32°C° 0 mm 1 mps 756 mmHg 57%
    14:00 +32°C° 0 mm 1 mps 755 mmHg 56%
    15:00 +32°C° 0 mm 1 mps 754 mmHg 55%
    16:00 +31°C° 0 mm 1 mps 754 mmHg 59%
    17:00 +29°C° 0 mm 1 mps 755 mmHg 63%
    18:00 +26°C° 0 mm 0 mps 755 mmHg 68%
    19:00 +28°C° 0.1 mm 1 mps 755 mmHg 71%
    20:00 +27°C° 0.1 mm 1 mps 756 mmHg 73%
    21:00 +26°C° 0.1 mm 2 mps 756 mmHg 76%
    22:00 +26°C° 0.1 mm 2 mps 756 mmHg 79%
    23:00 +25°C° 0.1 mm 2 mps 756 mmHg 81%

    25 October, Wednesday

    Time Temperature Precipitation Wind Pressure Humidity
    00:00 +25°C° 0.1 mm 2 mps 757 mmHg 83%
    01:00 +25°C° 0 mm 2 mps 756 mmHg 85%
    02:00 +24°C° 0 mm 2 mps 756 mmHg 86%
    03:00 +24°C° 0 mm 2 mps 756 mmHg 88%
    04:00 +24°C° 0 mm 2 mps 756 mmHg 88%
    05:00 +23°C° 0 mm 2 mps 757 mmHg 89%
    06:00 +23°C° 0 mm 2 mps 757 mmHg 89%
    07:00 +24°C° 0 mm 2 mps 758 mmHg 85%
    08:00 +26°C° 0 mm 2 mps 758 mmHg 80%
    09:00 +27°C° 0 mm 2 mps 759 mmHg 75%
    10:00 +28°C° 0.1 mm 2 mps 759 mmHg 71%
    11:00 +29°C° 0.1 mm 2 mps 758 mmHg 68%
    12:00 +30°C° 0.1 mm 1 mps 758 mmHg 64%
    13:00 +31°C° 0.1 mm 1 mps 757 mmHg 60%
    14:00 +31°C° 0.1 mm 1 mps 757 mmHg 57%
    15:00 +31°C° 0.1 mm 1 mps 756 mmHg 54%
    16:00 +30°C° 0 mm 1 mps 756 mmHg 58%
    17:00 +29°C° 0 mm 1 mps 756 mmHg 61%
    18:00 +27°C° 0 mm 1 mps 756 mmHg 65%
    19:00 +27°C° 0 mm 1 mps 757 mmHg 67%
    20:00 +26°C° 0 mm 1 mps 757 mmHg 69%
    21:00 +26°C° 0 mm 2 mps 758 mmHg 71%
    22:00 +25°C° 0 mm 2 mps 758 mmHg 74%
    23:00 +25°C° 0 mm 2 mps 758 mmHg 76%

    26 October, Thursday

    Time Temperature Precipitation Wind Pressure Humidity
    00:00 +25°C° 0 mm 2 mps 757 mmHg 78%
    01:00 +24°C° 0 mm 2 mps 757 mmHg 80%
    02:00 +24°C° 0 mm 2 mps 757 mmHg 81%
    03:00 +23°C° 0 mm 2 mps 757 mmHg 83%
    04:00 +23°C° 0 mm 2 mps 757 mmHg 84%
    05:00 +23°C° 0 mm 2 mps 757 mmHg 84%
    06:00 +23°C° 0 mm 2 mps 758 mmHg 85%
    07:00 +24°C° 0 mm 2 mps 758 mmHg 82%
    08:00 +25°C° 0 mm 2 mps 759 mmHg 78%
    09:00 +27°C° 0 mm 3 mps 759 mmHg 74%
    10:00 +28°C° 0.1 mm 2 mps 759 mmHg 70%
    11:00 +29°C° 0.1 mm 2 mps 758 mmHg 66%
    12:00 +30°C° 0.1 mm 2 mps 758 mmHg 62%
    13:00 +30°C° 0 mm 2 mps 757 mmHg 60%
    14:00 +30°C° 0 mm 2 mps 757 mmHg 58%
    15:00 +31°C° 0 mm 1 mps 756 mmHg 56%
    16:00 +29°C° 0 mm 1 mps 756 mmHg 60%
    17:00 +28°C° 0 mm 1 mps 756 mmHg 64%
    18:00 +27°C° 0 mm 1 mps 756 mmHg 68%
    19:00 +26°C° 0 mm 1 mps 757 mmHg 70%
    20:00 +26°C° 0 mm 1 mps 757 mmHg 72%
    21:00 +23°C° 0 mm 0 mps 757 mmHg 73%
    22:00 +25°C° 0 mm 1 mps 757 mmHg 75%
    23:00 +25°C° 0 mm 1 mps 757 mmHg 76%

    27 October, Friday

    Time Temperature Precipitation Wind Pressure Humidity
    00:00 +24°C° 0 mm 1 mps 757 mmHg 77%
    01:00 +24°C° 0 mm 1 mps 756 mmHg 79%
    02:00 +23°C° 0 mm 1 mps 756 mmHg 81%
    03:00 +23°C° 0 mm 1 mps 756 mmHg 82%
    04:00 +23°C° 0 mm 1 mps 756 mmHg 83%
    05:00 +23°C° 0 mm 1 mps 756 mmHg 84%
    06:00 +22°C° 0 mm 1 mps 757 mmHg 85%
    07:00 +24°C° 0 mm 2 mps 757 mmHg 81%
    08:00 +25°C° 0 mm 2 mps 757 mmHg 77%
    09:00 +27°C° 0 mm 2 mps 758 mmHg 72%
    10:00 +28°C° 0 mm 2 mps 757 mmHg 68%
    11:00 +29°C° 0 mm 2 mps 757 mmHg 63%
    12:00 +30°C° 0 mm 1 mps 756 mmHg 59%
    13:00 +30°C° 0 mm 1 mps 756 mmHg 58%
    14:00 +30°C° 0 mm 1 mps 755 mmHg 56%
    15:00 +30°C° 0 mm 1 mps 755 mmHg 55%
    16:00 +29°C° 0 mm 1 mps 755 mmHg 59%
    17:00 +28°C° 0 mm 1 mps 755 mmHg 63%
    18:00 +27°C° 0 mm 1 mps 755 mmHg 66%
    19:00 +26°C° 0 mm 1 mps 755 mmHg 68%
    20:00 +26°C° 0 mm 1 mps 756 mmHg 70%
    21:00 +25°C° 0 mm 1 mps 756 mmHg 71%
    22:00 +25°C° 0 mm 1 mps 756 mmHg 73%
    23:00 +24°C° 0 mm 1 mps 756 mmHg 75%
    Show more